Albin, Wyoming
Current Conditions -  °F | °C
As of 6:35 PM on Saturday 25 Oct 2014 (Local Time) from K82V Reporting Station
Clear Clear  
Wind Chill: 55°   Ceiling: Unl
Heat Index: 55°   Visibility: 10mi
Dew Point: 32°   Wind: 9mph
Humidity: 41%   Direction: 210°SSW
Pressure: 30.05"   Gusts: NA
Location:  41.42°N, 104.1°W
Report Text: K82V 260035Z AUTO 21008KT 10SM CLR 13/00 A3005 RMK AO2
Loading
Personal Weather Stations






























Interactive Weather Map New forecast layout! Learn more

10-Day Weather Forecast

Advertisements
Track Severe Weather on mobile